星链-5604 (STARLINK-5604 )

导读

STARLINK-5604是美国太空探索技术公司SpaceX星链星座中的一颗低轨互联网通信卫星,于2023年1月31日发射升空。星链项目旨在通过大规模低轨卫星组网,为全球提供高速低延迟的互联网服务,填补偏远地区网络覆盖空白。该卫星运行在近地轨道,属于星链大规模组网部署的一部分,助力SpaceX推进全球卫星互联网布局,但星链星座的快速扩张也引发了太空拥堵和天文观测干扰等争议。

基本信息
目录编号:
55420
目录名称:
STARLINK-5604
国际标识:
2023-014AF
轨道中心:
EARTH
卫星名称:
星链-5604
卫星全名:
星链-5604 (STARLINK-5604 )
卫星状态:
在轨 (已飞行1313 天)
发射日期:
2023-01-31 UTC
国别 :
美国 (US)
星等 :
--
轨道信息
数据来源 国际轨道数据
星历时间: 2026-09-05T05:49:36+0800
8小时前
查看轨道信息
半长轴: 6950.216km
偏心率: 0.0003839
轨道倾角: 69.999°
近地点辐角 266.193°
升交点赤经 312.604°
平近点角 93.879°
近地点: 569.41km
远地点: 574.748km
周期: 96.107分钟
每日圈数: 14.983228
详细信息
固有亮度:
5
最大亮度:
2.5
卫星平台:
Starlink v1.5
覆盖范围:
全球
运营商:
太空探索技术公司
运营商所在国:
美国
制造商(研发单位):
太空探索技术公司
制造商所在国:
美国
使用方式:
暂无
卫星简介
星链(Starlink)计划是由太空探索技术公司(SpaceX)提出的一个巨型低轨卫星互联网星座项目,计划在2019年至2024年间在太空搭建由约1.2万颗卫星组成的“星链”网络,其中1584颗将部署在地球上空550千米处的近地轨道,并从2020年开始工作。该卫星仍在工作。
2D轨道图
3D轨道图
轨道高度分析图
轨道倾角分析图
轨道综合分析图
查看轨道综合分析图
交会数据列表
事件ID 空间交会对象 最接近时刻(TCA) 交会距离 交会风险概率(CRP) 交会风险指数(CRI) 操作
CDM_260906-085502-746905-542021
2026-09-06T
08:55:43+0000
2.172 km
极远距离
2.238171E-6 低风险 0.42
CDM_260905-082205-542006-324922
EZIE-C (63249)
2026-09-05T
08:22:56+0000
2.254 km
极远距离
2.174371E-6 低风险 0.42
CDM_260906-020504-227105-542021
2026-09-06T
02:05:32+0000
1.910 km
极远距离
1.739054E-6 低风险 0.4
CDM_260906-092405-542005-910521
2026-09-06T
09:24:48+0000
2.877 km
极远距离
1.081074E-6 低风险 0.36